Alpine Marie — H3UD — position and weather

sailwx.info

Track history (hours):
 
Tides and Currents Weather Stations Pressure Air Temp Water Temp Dewpoint Dewpoint Depression Visibility Wind Speed Wind Dir Waves Ship Positions

Alpine Marie

Last reported at 2015-Jul-30 15:33 UTC. Time now 2015-Aug-28 22:18 UTC.
Position S 26°49' E 153°32'.
Warning: this ship's position is 29 days out of date.

Length 172 m; draft 7.8 m.

Type: Tanker. MMSI: 353172000.

Date/timePositionNaut miles runAvg speedWind from/ knotsBaromVisibWave heightAir tempDewpointWater temp
2015-Jul-30 15:33S 26°49' E 153°32'1413.8
2015-Jul-30 14:34S 26°44' E 153°18'7 6.8
2015-Jul-30 13:34S 26°47' E 153°11'1312.7
2015-Jul-30 12:34S 26°59' E 153°14'1312.8
2015-Jul-30 11:33S 27°11' E 153°21'1212.5
2015-Jul-30 10:33S 27°20' E 153°12'7 6.8
2015-Jul-30 09:32S 27°26' E 153°07'0 0.0
2015-Jul-29 18:12S 27°26' E 153°07'2 2.5
2015-Jul-29 17:33S 27°25' E 153°09'9 8.6
2015-Jul-29 16:34S 27°17' E 153°13'1 1.2
2015-Jul-29 15:31S 27°16' E 153°13'0 0.0
2015-Jul-29 14:28S 27°16' E 153°13'0 0.0
2015-Jul-29 13:31S 27°16' E 153°13'0 0.0
2015-Jul-29 12:31S 27°16' E 153°13'0 0.1
2015-Jul-29 11:31S 27°16' E 153°13'0 0.1
2015-Jul-29 10:31S 27°16' E 153°13'0 0.0
2015-Jul-29 09:31S 27°16' E 153°13'0 0.1
2015-Jul-29 08:31S 27°16' E 153°13'0 0.0
2015-Jul-29 07:31S 27°16' E 153°13'0 0.1
2015-Jul-29 06:31S 27°16' E 153°13'0 0.1
2015-Jul-29 05:31S 27°16' E 153°13'0 0.0
2015-Jul-29 04:31S 27°16' E 153°13'0 0.1
2015-Jul-29 03:28S 27°16' E 153°13'0 0.1
2015-Jul-29 02:31S 27°16' E 153°13'0 0.0
2015-Jul-29 01:31S 27°16' E 153°13'0 0.0
2015-Jul-29 00:31S 27°16' E 153°13'0 0.1
2015-Jul-28 23:31S 27°16' E 153°13'0 0.0
2015-Jul-28 22:31S 27°16' E 153°13'0 0.0
2015-Jul-28 21:31S 27°16' E 153°13'0 0.0
2015-Jul-28 20:25S 27°16' E 153°13'0 0.0
2015-Jul-28 19:31S 27°16' E 153°13'0 0.0
2015-Jul-28 18:31S 27°16' E 153°13'0 0.0
2015-Jul-28 17:31S 27°16' E 153°13'0 0.0
2015-Jul-28 16:31S 27°16' E 153°13'0 0.0
2015-Jul-28 15:31S 27°16' E 153°13'0 0.1
2015-Jul-28 14:31S 27°16' E 153°13'0 0.0
2015-Jul-28 13:31S 27°16' E 153°13'0 0.0
2015-Jul-28 12:31S 27°16' E 153°13'0 0.0
2015-Jul-28 11:31S 27°16' E 153°13'0 0.1
2015-Jul-28 10:31S 27°16' E 153°13'0 0.0
2015-Jul-28 09:31S 27°16' E 153°13'0 0.0
2015-Jul-28 08:31S 27°16' E 153°13'0 0.1
2015-Jul-28 07:31S 27°16' E 153°13'0 0.0
2015-Jul-28 06:31S 27°16' E 153°13'0 0.0
2015-Jul-28 05:31S 27°16' E 153°13'0 0.0
2015-Jul-28 04:31S 27°16' E 153°13'0 0.1
2015-Jul-28 03:25S 27°16' E 153°13'0 0.0
2015-Jul-28 02:31S 27°16' E 153°13'0 0.1
2015-Jul-28 01:31S 27°16' E 153°13'0 0.0
2015-Jul-28 00:31S 27°16' E 153°13'0 0.0
2015-Jul-27 23:31S 27°16' E 153°13'0 0.1
2015-Jul-27 22:31S 27°16' E 153°13'0 0.0
2015-Jul-27 21:31S 27°16' E 153°13'0 0.0
2015-Jul-27 20:31S 27°16' E 153°13'0 0.1
2015-Jul-27 19:31S 27°16' E 153°13'6 5.9
2015-Jul-27 18:33S 27°21' E 153°11'4 3.5
2015-Jul-27 17:33S 27°24' E 153°09'0 0.0
2015-Jul-27 16:28S 27°24' E 153°09'0 0.0
2015-Jul-26 07:33S 27°24' E 153°09'7 7.2
2015-Jul-26 06:33S 27°18' E 153°13'1211.6
2015-Jul-26 05:33S 27°09' E 153°21'1312.9
2015-Jul-26 04:33S 26°58' E 153°13'1010.4
2015-Jul-26 03:33S 26°47' E 153°11'4 3.6
2015-Jul-26 02:33S 26°44' E 153°13'1 0.6
2015-Jul-26 00:33S 26°45' E 153°13'0 0.0
2015-Jul-25 22:06S 26°45' E 153°14'0 0.0
2015-Jul-25 21:33S 26°45' E 153°14'0 0.0
2015-Jul-25 18:21S 26°45' E 153°14'0 0.0
2015-Jul-25 17:24S 26°45' E 153°14'2 2.3
2015-Jul-25 16:33S 26°47' E 153°15'1111.4
2015-Jul-25 15:33S 26°45' E 153°27'1212.1
2015-Jul-25 14:33S 26°50' E 153°40'1212.2
2015-Jul-25 13:33S 26°58' E 153°50'1212.0
2015-Jul-25 12:33S 27°10' E 153°53'1212.4
2015-Jul-25 11:33S 27°22' E 153°57'1412.0
2015-Jul-25 10:25S 27°35' E 153°57'1112.3
2015-Jul-25 09:33S 27°46' E 153°57'29010.7
2015-Jul-24 06:32S 32°30' E 152°49'1111.3
2015-Jul-24 05:33S 32°40' E 152°44'1212.0
2015-Jul-24 04:33S 32°51' E 152°37'1312.8
2015-Jul-24 03:33S 33°01' E 152°27'1312.8
2015-Jul-24 02:33S 33°10' E 152°17'1312.8
2015-Jul-24 01:33S 33°20' E 152°07'1312.7
2015-Jul-24 00:33S 33°29' E 151°57'27 0.8
2015-Jul-22 13:33S 33°12' E 152°22'1413.4
2015-Jul-22 12:29S 33°02' E 152°33'1313.8
2015-Jul-22 11:33S 32°53' E 152°44'1715.0
2015-Jul-22 10:27S 32°41' E 152°58'  
Track history (hours):
 
Tides and Currents Weather Stations Pressure Air Temp Water Temp Dewpoint Dewpoint Depression Visibility Wind Speed Wind Dir Waves Ship Positions

Alpine Marie

Last reported at 2015-Jul-30 15:33 UTC. Time now 2015-Aug-28 22:18 UTC.
Position S 26°49' E 153°32'.
Warning: this ship's position is 29 days out of date.

Length 172 m; draft 7.8 m.

Type: Tanker. MMSI: 353172000.

Date/timePositionNaut miles runAvg speedWind from/ knotsBaromVisibWave heightAir tempDewpointWater temp
2015-Jul-30 15:33S 26°49' E 153°32'1413.8
2015-Jul-30 14:34S 26°44' E 153°18'7 6.8
2015-Jul-30 13:34S 26°47' E 153°11'1312.7
2015-Jul-30 12:34S 26°59' E 153°14'1312.8
2015-Jul-30 11:33S 27°11' E 153°21'1212.5
2015-Jul-30 10:33S 27°20' E 153°12'7 6.8
2015-Jul-30 09:32S 27°26' E 153°07'0 0.0
2015-Jul-29 18:12S 27°26' E 153°07'2 2.5
2015-Jul-29 17:33S 27°25' E 153°09'9 8.6
2015-Jul-29 16:34S 27°17' E 153°13'1 1.2
2015-Jul-29 15:31S 27°16' E 153°13'0 0.0
2015-Jul-29 14:28S 27°16' E 153°13'0 0.0
2015-Jul-29 13:31S 27°16' E 153°13'0 0.0
2015-Jul-29 12:31S 27°16' E 153°13'0 0.1
2015-Jul-29 11:31S 27°16' E 153°13'0 0.1
2015-Jul-29 10:31S 27°16' E 153°13'0 0.0
2015-Jul-29 09:31S 27°16' E 153°13'0 0.1
2015-Jul-29 08:31S 27°16' E 153°13'0 0.0
2015-Jul-29 07:31S 27°16' E 153°13'0 0.1
2015-Jul-29 06:31S 27°16' E 153°13'0 0.1
2015-Jul-29 05:31S 27°16' E 153°13'0 0.0
2015-Jul-29 04:31S 27°16' E 153°13'0 0.1
2015-Jul-29 03:28S 27°16' E 153°13'0 0.1
2015-Jul-29 02:31S 27°16' E 153°13'0 0.0
2015-Jul-29 01:31S 27°16' E 153°13'0 0.0
2015-Jul-29 00:31S 27°16' E 153°13'0 0.1
2015-Jul-28 23:31S 27°16' E 153°13'0 0.0
2015-Jul-28 22:31S 27°16' E 153°13'0 0.0
2015-Jul-28 21:31S 27°16' E 153°13'0 0.0
2015-Jul-28 20:25S 27°16' E 153°13'0 0.0
2015-Jul-28 19:31S 27°16' E 153°13'0 0.0
2015-Jul-28 18:31S 27°16' E 153°13'0 0.0
2015-Jul-28 17:31S 27°16' E 153°13'0 0.0
2015-Jul-28 16:31S 27°16' E 153°13'0 0.0
2015-Jul-28 15:31S 27°16' E 153°13'0 0.1
2015-Jul-28 14:31S 27°16' E 153°13'0 0.0
2015-Jul-28 13:31S 27°16' E 153°13'0 0.0
2015-Jul-28 12:31S 27°16' E 153°13'0 0.0
2015-Jul-28 11:31S 27°16' E 153°13'0 0.1
2015-Jul-28 10:31S 27°16' E 153°13'0 0.0
2015-Jul-28 09:31S 27°16' E 153°13'0 0.0
2015-Jul-28 08:31S 27°16' E 153°13'0 0.1
2015-Jul-28 07:31S 27°16' E 153°13'0 0.0
2015-Jul-28 06:31S 27°16' E 153°13'0 0.0
2015-Jul-28 05:31S 27°16' E 153°13'0 0.0
2015-Jul-28 04:31S 27°16' E 153°13'0 0.1
2015-Jul-28 03:25S 27°16' E 153°13'0 0.0
2015-Jul-28 02:31S 27°16' E 153°13'0 0.1
2015-Jul-28 01:31S 27°16' E 153°13'0 0.0
2015-Jul-28 00:31S 27°16' E 153°13'0 0.0
2015-Jul-27 23:31S 27°16' E 153°13'0 0.1
2015-Jul-27 22:31S 27°16' E 153°13'0 0.0
2015-Jul-27 21:31S 27°16' E 153°13'0 0.0
2015-Jul-27 20:31S 27°16' E 153°13'0 0.1
2015-Jul-27 19:31S 27°16' E 153°13'6 5.9
2015-Jul-27 18:33S 27°21' E 153°11'4 3.5
2015-Jul-27 17:33S 27°24' E 153°09'0 0.0
2015-Jul-27 16:28S 27°24' E 153°09'0 0.0
2015-Jul-26 07:33S 27°24' E 153°09'7 7.2
2015-Jul-26 06:33S 27°18' E 153°13'1211.6
2015-Jul-26 05:33S 27°09' E 153°21'1312.9
2015-Jul-26 04:33S 26°58' E 153°13'1010.4
2015-Jul-26 03:33S 26°47' E 153°11'4 3.6
2015-Jul-26 02:33S 26°44' E 153°13'1 0.6
2015-Jul-26 00:33S 26°45' E 153°13'0 0.0
2015-Jul-25 22:06S 26°45' E 153°14'0 0.0
2015-Jul-25 21:33S 26°45' E 153°14'0 0.0
2015-Jul-25 18:21S 26°45' E 153°14'0 0.0
2015-Jul-25 17:24S 26°45' E 153°14'2 2.3
2015-Jul-25 16:33S 26°47' E 153°15'1111.4
2015-Jul-25 15:33S 26°45' E 153°27'1212.1
2015-Jul-25 14:33S 26°50' E 153°40'1212.2
2015-Jul-25 13:33S 26°58' E 153°50'1212.0
2015-Jul-25 12:33S 27°10' E 153°53'1212.4
2015-Jul-25 11:33S 27°22' E 153°57'1412.0
2015-Jul-25 10:25S 27°35' E 153°57'1112.3
2015-Jul-25 09:33S 27°46' E 153°57'29010.7
2015-Jul-24 06:32S 32°30' E 152°49'1111.3
2015-Jul-24 05:33S 32°40' E 152°44'1212.0
2015-Jul-24 04:33S 32°51' E 152°37'1312.8
2015-Jul-24 03:33S 33°01' E 152°27'1312.8
2015-Jul-24 02:33S 33°10' E 152°17'1312.8
2015-Jul-24 01:33S 33°20' E 152°07'1312.7
2015-Jul-24 00:33S 33°29' E 151°57'27 0.8
2015-Jul-22 13:33S 33°12' E 152°22'1413.4
2015-Jul-22 12:29S 33°02' E 152°33'1313.8
2015-Jul-22 11:33S 32°53' E 152°44'1715.0
2015-Jul-22 10:27S 32°41' E 152°58'  

Dump ship's entire track history